This is the latest recevied weather packets stored in our database for station/object KF0TNT. If no packets are shown the sender has not sent any weather packets the latest 10 day(s).
| Time | Temp. | Humidity | Pressure | Rain* | Wind** | Luminosity | Snow |
|---|---|---|---|---|---|---|---|
| 1777940845 | 11.67° C | 44% | 1012.2 hPa | 0 mm | - | 37 W/m² | - |
| 1777940542 | 12.22° C | 44% | 1012.3 hPa | 0 mm | - | 55 W/m² | - |
| 1777940240 | 12.22° C | 43% | 1011.8 hPa | 0 mm | - | 57 W/m² | - |
| 1777939937 | 12.22° C | 43% | 1012.3 hPa | 0 mm | - | 67 W/m² | - |
| 1777939634 | 12.78° C | 42% | 1012.2 hPa | 0 mm | - | 83 W/m² | - |
| 1777939332 | 12.78° C | 39% | 1012.3 hPa | 0 mm | - | 60 W/m² | - |
| 1777939028 | 13.89° C | 38% | 1012 hPa | 0 mm | - | 58 W/m² | - |
| 1777938724 | 14.44° C | 35% | 1011.7 hPa | 0 mm | - | 67 W/m² | - |
| 1777938422 | 14.44° C | 34% | 1011.5 hPa | 0 mm | - | 71 W/m² | - |
| 1777938119 | 14.44° C | 35% | 1011.8 hPa | 0 mm | - | 142 W/m² | - |
| 1777937814 | 14.44° C | 35% | 1011.7 hPa | 0 mm | - | 157 W/m² | - |
| 1777937510 | 14.44° C | 35% | 1012.2 hPa | 0 mm | - | 227 W/m² | - |
| 1777937209 | 15° C | 34% | 1011.9 hPa | 0 mm | - | 194 W/m² | - |
| 1777936905 | 15° C | 34% | 1012 hPa | 0 mm | - | 204 W/m² | - |
| 1777936602 | 15° C | 32% | 1011.9 hPa | 0 mm | - | 241 W/m² | - |
| 1777936298 | 15° C | 34% | 1011.8 hPa | 0 mm | - | 179 W/m² | - |
| 1777935994 | 15° C | 34% | 1011.9 hPa | 0 mm | - | 179 W/m² | - |
| 1777935693 | 15° C | 33% | 1011.7 hPa | 0 mm | - | 181 W/m² | - |
| 1777935391 | 15.56° C | 32% | 1011.7 hPa | 0 mm | - | 161 W/m² | - |
| 1777935087 | 15° C | 31% | 1011.7 hPa | 0 mm | - | 170 W/m² | - |
| 1777934784 | 15° C | 32% | 1011.7 hPa | 0 mm | - | 148 W/m² | - |
| 1777934480 | 15.56° C | 32% | 1011.4 hPa | 0 mm | - | 149 W/m² | - |
| 1777934178 | 15.56° C | 31% | 1011.2 hPa | 0 mm | - | 138 W/m² | - |
| 1777933874 | 15.56° C | 31% | 1010.9 hPa | 0 mm | - | 164 W/m² | - |
| 1777933571 | 15.56° C | 31% | 1011 hPa | 0 mm | - | 157 W/m² | - |
* Rain latest hour (hover to see other rain measurements)
** Current wind speed in m/s (hover to see current wind gust speed)